Time,TemperatureF,DewpointF,PressureIn,WindDirection,WindDirectionDegrees,WindSpeedMPH,WindSpeedGustMPH,Humidity,HourlyPrecipIn,Conditions,Clouds,dailyrainin,SoftwareType,DateUTC
2013-03-03 00:00:00,27.5,16.9,30.06,North,11,3.0,3.0,64,0.00,,,0.02,Wunderground v.1.15,2013-03-03 05:00:00,
2013-03-03 00:01:00,27.5,16.5,30.06,NW,310,3.0,3.0,63,0.00,,,0.02,Wunderground v.1.15,2013-03-03 05:01:00,
2013-03-03 00:02:00,27.5,16.9,30.05,NW,306,3.0,3.0,64,0.00,,,0.00,Wunderground v.1.15,2013-03-03 05:02:00,
2013-03-03 00:03:00,27.5,16.5,30.05,WSW,245,3.0,5.0,63,0.00,,,0.00,Wunderground v.1.15,2013-03-03 05:03:00,
2013-03-03 00:08:00,27.4,16.1,30.05,ENE,67,4.0,8.0,62,0.00,,,0.00,Wunderground v.1.15,2013-03-03 05:08:00,
2013-03-03 00:14:00,27.2,15.5,30.05,WSW,254,4.0,4.0,61,0.00,,,0.00,Wunderground v.1.15,2013-03-03 05:14:00,
2013-03-03 00:20:00,27.1,15.4,30.06,SSW,196,3.0,3.0,61,0.00,,,0.00,Wunderground v.1.15,2013-03-03 05:20:00,
2013-03-03 00:25:00,27.0,15.3,30.05,West,271,3.0,5.0,61,0.00,,,0.00,Wunderground v.1.15,2013-03-03 05:25:00,
2013-03-03 00:31:00,26.9,14.9,30.05,SSW,194,4.0,5.0,60,0.00,,,0.00,Wunderground v.1.15,2013-03-03 05:31:00,
2013-03-03 00:36:00,26.8,14.8,30.05,SW,218,3.0,5.0,60,0.00,,,0.00,Wunderground v.1.15,2013-03-03 05:36:00,
2013-03-03 00:42:00,26.7,14.7,30.05,North,360,3.0,5.0,60,0.00,,,0.00,Wunderground v.1.15,2013-03-03 05:42:00,
2013-03-03 00:51:00,26.6,14.9,30.05,SSW,212,3.0,3.0,61,0.00,,,0.00,Wunderground v.1.15,2013-03-03 05:51:00,
2013-03-03 00:56:00,26.5,14.9,30.06,North,350,3.0,14.0,61,0.00,,,0.00,Wunderground v.1.15,2013-03-03 05:56:00,
2013-03-03 01:01:00,26.4,14.8,30.05,SSE,165,4.0,4.0,61,0.00,,,0.00,Wunderground v.1.15,2013-03-03 06:01:00,
2013-03-03 01:07:00,26.3,14.3,30.06,SSW,213,3.0,4.0,60,0.00,,,0.00,Wunderground v.1.15,2013-03-03 06:07:00,
2013-03-03 01:13:00,26.2,14.6,30.06,North,355,4.0,6.0,61,0.00,,,0.00,Wunderground v.1.15,2013-03-03 06:13:00,
2013-03-03 01:19:00,26.1,14.5,30.06,SW,225,4.0,11.0,61,0.00,,,0.00,Wunderground v.1.15,2013-03-03 06:19:00,
2013-03-03 01:25:00,26.1,15.2,30.06,WSW,250,2.0,7.0,63,0.00,,,0.00,Wunderground v.1.15,2013-03-03 06:25:00,
2013-03-03 01:31:00,26.0,14.8,30.06,West,276,4.0,4.0,62,0.00,,,0.00,Wunderground v.1.15,2013-03-03 06:31:00,
2013-03-03 01:36:00,26.0,15.1,30.07,NNE,25,4.0,5.0,63,0.00,,,0.00,Wunderground v.1.15,2013-03-03 06:36:00,
2013-03-03 01:42:00,25.9,15.4,30.06,WSW,250,3.0,8.0,64,0.00,,,0.00,Wunderground v.1.15,2013-03-03 06:42:00,
2013-03-03 01:51:00,25.8,15.3,30.06,West,277,3.0,3.0,64,0.00,,,0.00,Wunderground v.1.15,2013-03-03 06:51:00,
2013-03-03 01:56:00,25.8,14.9,30.06,SE,132,4.0,15.0,63,0.00,,,0.00,Wunderground v.1.15,2013-03-03 06:56:00,
2013-03-03 02:01:00,25.7,14.8,30.06,South,173,4.0,4.0,63,0.00,,,0.00,Wunderground v.1.15,2013-03-03 07:01:00,
2013-03-03 02:07:00,25.6,14.7,30.06,NNW,338,4.0,14.0,63,0.00,,,0.00,Wunderground v.1.15,2013-03-03 07:07:00,
2013-03-03 02:13:00,25.6,14.7,30.06,WNW,298,5.0,5.0,63,0.00,,,0.00,Wunderground v.1.15,2013-03-03 07:13:00,
2013-03-03 02:19:00,25.4,14.2,30.06,West,276,4.0,8.0,62,0.00,,,0.00,Wunderground v.1.15,2013-03-03 07:19:00,
2013-03-03 02:25:00,25.4,14.5,30.06,NW,313,5.0,5.0,63,0.00,,,0.00,Wunderground v.1.15,2013-03-03 07:25:00,
2013-03-03 02:30:00,25.3,14.1,30.06,North,5,4.0,4.0,62,0.00,,,0.00,Wunderground v.1.15,2013-03-03 07:30:00,
2013-03-03 02:35:00,25.2,14.0,30.06,SE,130,3.0,4.0,62,0.00,,,0.00,Wunderground v.1.15,2013-03-03 07:35:00,
2013-03-03 02:41:00,25.2,14.0,30.06,NE,45,4.0,4.0,62,0.00,,,0.00,Wunderground v.1.15,2013-03-03 07:41:00,
2013-03-03 02:51:00,25.1,13.9,30.07,SW,219,2.0,2.0,62,0.00,,,0.00,Wunderground v.1.15,2013-03-03 07:51:00,
2013-03-03 02:56:00,25.0,14.2,30.06,SW,228,3.0,15.0,63,0.00,,,0.00,Wunderground v.1.15,2013-03-03 07:56:00,
2013-03-03 03:02:00,25.0,14.2,30.07,NNW,333,3.0,6.0,63,0.00,,,0.00,Wunderground v.1.15,2013-03-03 08:02:00,
2013-03-03 03:07:00,24.9,13.7,30.07,WSW,241,4.0,7.0,62,0.00,,,0.00,Wunderground v.1.15,2013-03-03 08:07:00,
2013-03-03 03:12:00,24.9,14.1,30.06,NNW,336,3.0,6.0,63,0.00,,,0.00,Wunderground v.1.15,2013-03-03 08:12:00,
2013-03-03 03:18:00,24.9,14.1,30.06,SSW,198,3.0,6.0,63,0.00,,,0.00,Wunderground v.1.15,2013-03-03 08:18:00,
2013-03-03 03:23:00,24.8,14.0,30.06,West,260,3.0,9.0,63,0.00,,,0.00,Wunderground v.1.15,2013-03-03 08:23:00,
2013-03-03 03:29:00,24.8,14.0,30.06,WSW,256,3.0,9.0,63,0.00,,,0.00,Wunderground v.1.15,2013-03-03 08:29:00,
2013-03-03 03:35:00,24.7,14.2,30.06,NNE,32,1.0,3.0,64,0.00,,,0.00,Wunderground v.1.15,2013-03-03 08:35:00,
2013-03-03 03:41:00,24.6,14.1,30.06,NW,315,2.0,4.0,64,0.00,,,0.00,Wunderground v.1.15,2013-03-03 08:41:00,
2013-03-03 03:51:00,24.5,14.1,30.06,ENE,71,2.0,2.0,64,0.00,,,0.00,Wunderground v.1.15,2013-03-03 08:51:00,
2013-03-03 03:56:00,24.5,13.7,30.06,West,274,2.0,6.0,63,0.00,,,0.00,Wunderground v.1.15,2013-03-03 08:56:00,
2013-03-03 04:02:00,24.5,14.1,30.06,WNW,295,3.0,5.0,64,0.00,,,0.00,Wunderground v.1.15,2013-03-03 09:02:00,
2013-03-03 04:07:00,24.4,13.6,30.06,NW,311,3.0,6.0,63,0.00,,,0.00,Wunderground v.1.15,2013-03-03 09:07:00,
2013-03-03 04:12:00,24.4,13.6,30.06,SW,233,3.0,3.0,63,0.00,,,0.00,Wunderground v.1.15,2013-03-03 09:12:00,
2013-03-03 04:17:00,24.3,13.9,30.06,NW,315,2.0,4.0,64,0.00,,,0.00,Wunderground v.1.15,2013-03-03 09:17:00,
2013-03-03 04:23:00,24.3,13.5,30.07,NW,309,3.0,9.0,63,0.00,,,0.00,Wunderground v.1.15,2013-03-03 09:23:00,
2013-03-03 04:28:00,24.3,13.1,30.07,WSW,244,4.0,9.0,62,0.00,,,0.00,Wunderground v.1.15,2013-03-03 09:28:00,
2013-03-03 04:33:00,24.2,13.0,30.07,NW,310,4.0,4.0,62,0.00,,,0.00,Wunderground v.1.15,2013-03-03 09:33:00,
2013-03-03 04:39:00,24.2,13.0,30.07,NE,53,3.0,7.0,62,0.00,,,0.00,Wunderground v.1.15,2013-03-03 09:39:00,
2013-03-03 04:45:00,24.2,13.4,30.08,NNE,30,3.0,5.0,63,0.00,,,0.00,Wunderground v.1.15,2013-03-03 09:45:00,
2013-03-03 04:51:00,24.1,13.3,30.07,NNW,328,2.0,2.0,63,0.00,,,0.00,Wunderground v.1.15,2013-03-03 09:51:00,
2013-03-03 04:56:00,24.1,12.9,30.07,NW,311,3.0,8.0,62,0.00,,,0.00,Wunderground v.1.15,2013-03-03 09:56:00,
2013-03-03 05:02:00,24.1,13.3,30.07,NNW,342,4.0,12.0,63,0.00,,,0.00,Wunderground v.1.15,2013-03-03 10:02:00,
2013-03-03 05:08:00,24.1,13.3,30.07,WSW,250,3.0,12.0,63,0.00,,,0.00,Wunderground v.1.15,2013-03-03 10:08:00,
2013-03-03 05:14:00,24.1,12.9,30.07,South,174,3.0,6.0,62,0.00,,,0.00,Wunderground v.1.15,2013-03-03 10:14:00,
2013-03-03 05:20:00,24.1,13.3,30.07,NW,319,3.0,6.0,63,0.00,,,0.00,Wunderground v.1.15,2013-03-03 10:20:00,
2013-03-03 05:25:00,24.1,12.9,30.07,West,280,3.0,6.0,62,0.00,,,0.00,Wunderground v.1.15,2013-03-03 10:25:00,
2013-03-03 05:31:00,24.1,12.9,30.07,WNW,296,3.0,3.0,62,0.00,,,0.00,Wunderground v.1.15,2013-03-03 10:31:00,
2013-03-03 05:36:00,24.1,12.9,30.07,East,86,3.0,6.0,62,0.00,,,0.00,Wunderground v.1.15,2013-03-03 10:36:00,
2013-03-03 05:42:00,24.1,13.3,30.07,WSW,258,3.0,4.0,63,0.00,,,0.00,Wunderground v.1.15,2013-03-03 10:42:00,
2013-03-03 05:51:00,24.0,13.6,30.07,West,262,3.0,5.0,64,0.00,,,0.00,Wunderground v.1.15,2013-03-03 10:51:00,
2013-03-03 05:56:00,24.0,13.6,30.07,NW,323,3.0,13.0,64,0.00,,,0.00,Wunderground v.1.15,2013-03-03 10:56:00,
2013-03-03 06:01:00,24.0,13.6,30.07,NNW,347,3.0,3.0,64,0.00,,,0.00,Wunderground v.1.15,2013-03-03 11:01:00,
2013-03-03 06:07:00,23.9,13.8,30.08,ENE,69,2.0,4.0,65,0.00,,,0.00,Wunderground v.1.15,2013-03-03 11:07:00,
2013-03-03 06:13:00,23.8,13.7,30.08,NE,45,2.0,2.0,65,0.00,,,0.00,Wunderground v.1.15,2013-03-03 11:13:00,
2013-03-03 06:19:00,23.9,13.8,30.08,West,274,3.0,6.0,65,0.00,,,0.00,Wunderground v.1.15,2013-03-03 11:19:00,
2013-03-03 06:24:00,23.9,13.8,30.08,NNE,30,3.0,8.0,65,0.00,,,0.00,Wunderground v.1.15,2013-03-03 11:24:00,
2013-03-03 06:29:00,23.9,13.8,30.08,NNW,335,3.0,8.0,65,0.00,,,0.00,Wunderground v.1.15,2013-03-03 11:29:00,
2013-03-03 06:35:00,23.8,14.1,30.08,NE,38,2.0,5.0,66,0.00,,,0.00,Wunderground v.1.15,2013-03-03 11:35:00,
2013-03-03 06:40:00,23.8,13.7,30.08,NNW,342,2.0,2.0,65,0.00,,,0.00,Wunderground v.1.15,2013-03-03 11:40:00,
2013-03-03 06:51:00,23.8,14.1,30.09,NW,305,2.0,2.0,66,0.00,,,0.00,Wunderground v.1.15,2013-03-03 11:51:00,
2013-03-03 06:56:00,23.8,14.1,30.09,South,182,2.0,13.0,66,0.00,,,0.00,Wunderground v.1.15,2013-03-03 11:56:00,
2013-03-03 07:02:00,23.8,14.1,30.09,West,280,2.0,6.0,66,0.00,,,0.00,Wunderground v.1.15,2013-03-03 12:02:00,
2013-03-03 07:08:00,23.8,14.4,30.10,West,278,2.0,6.0,67,0.00,,,0.00,Wunderground v.1.15,2013-03-03 12:08:00,
2013-03-03 07:13:00,23.8,14.4,30.10,WNW,294,3.0,7.0,67,0.00,,,0.00,Wunderground v.1.15,2013-03-03 12:13:00,
2013-03-03 07:19:00,23.8,14.1,30.10,NNW,343,3.0,7.0,66,0.00,,,0.00,Wunderground v.1.15,2013-03-03 12:19:00,
2013-03-03 07:24:00,23.9,14.2,30.10,WNW,289,3.0,9.0,66,0.00,,,0.00,Wunderground v.1.15,2013-03-03 12:24:00,
2013-03-03 07:30:00,24.0,13.9,30.10,NW,307,4.0,4.0,65,0.00,,,0.00,Wunderground v.1.15,2013-03-03 12:30:00,
2013-03-03 07:36:00,24.2,14.5,30.11,NW,310,4.0,5.0,66,0.00,,,0.00,Wunderground v.1.15,2013-03-03 12:36:00,
2013-03-03 07:42:00,24.3,14.6,30.11,NW,311,5.0,8.0,66,0.00,,,0.00,Wunderground v.1.15,2013-03-03 12:42:00,
2013-03-03 07:51:00,24.5,14.4,30.11,NNW,330,6.0,8.0,65,0.00,,,0.00,Wunderground v.1.15,2013-03-03 12:51:00,
2013-03-03 07:56:00,24.5,14.1,30.12,West,271,6.0,9.0,64,0.00,,,0.00,Wunderground v.1.15,2013-03-03 12:56:00,
2013-03-03 08:02:00,24.7,14.2,30.12,NW,324,5.0,6.0,64,0.00,,,0.00,Wunderground v.1.15,2013-03-03 13:02:00,
2013-03-03 08:08:00,24.7,13.9,30.12,NNW,339,5.0,13.0,63,0.00,,,0.00,Wunderground v.1.15,2013-03-03 13:08:00,
2013-03-03 08:14:00,24.9,14.8,30.12,NNW,336,4.0,5.0,65,0.00,,,0.00,Wunderground v.1.15,2013-03-03 13:14:00,
2013-03-03 08:19:00,25.1,14.6,30.12,WNW,300,2.0,5.0,64,0.00,,,0.00,Wunderground v.1.15,2013-03-03 13:19:00,
2013-03-03 08:25:00,25.4,14.9,30.12,NNW,327,3.0,3.0,64,0.00,,,0.00,Wunderground v.1.15,2013-03-03 13:25:00,
2013-03-03 08:30:00,25.5,14.3,30.12,NW,306,3.0,3.0,62,0.00,,,0.00,Wunderground v.1.15,2013-03-03 13:30:00,
2013-03-03 08:36:00,25.7,14.5,30.13,North,360,3.0,5.0,62,0.00,,,0.00,Wunderground v.1.15,2013-03-03 13:36:00,
2013-03-03 08:42:00,25.8,14.6,30.13,NW,304,3.0,5.0,62,0.00,,,0.00,Wunderground v.1.15,2013-03-03 13:42:00,
2013-03-03 08:51:00,25.8,13.8,30.13,NE,45,2.0,3.0,60,0.00,,,0.00,Wunderground v.1.15,2013-03-03 13:51:00,
2013-03-03 08:56:00,26.1,13.7,30.13,NNE,29,3.0,15.0,59,0.00,,,0.00,Wunderground v.1.15,2013-03-03 13:56:00,
2013-03-03 09:01:00,26.2,13.8,30.13,NNW,342,3.0,4.0,59,0.00,,,0.00,Wunderground v.1.15,2013-03-03 14:01:00,
2013-03-03 09:06:00,26.2,13.4,30.13,ENE,64,3.0,9.0,58,0.00,,,0.00,Wunderground v.1.15,2013-03-03 14:06:00,
2013-03-03 09:12:00,26.4,13.6,30.13,WSW,239,3.0,4.0,58,0.00,,,0.00,Wunderground v.1.15,2013-03-03 14:12:00,
2013-03-03 09:18:00,26.7,13.5,30.13,NNW,327,3.0,5.0,57,0.00,,,0.00,Wunderground v.1.15,2013-03-03 14:18:00,
2013-03-03 09:24:00,26.7,13.5,30.13,WSW,242,3.0,11.0,57,0.00,,,0.00,Wunderground v.1.15,2013-03-03 14:24:00,
2013-03-03 09:29:00,26.9,13.3,30.13,NE,55,4.0,11.0,56,0.00,,,0.00,Wunderground v.1.15,2013-03-03 14:29:00,
2013-03-03 09:34:00,27.2,13.1,30.13,ENE,66,4.0,14.0,55,0.00,,,0.00,Wunderground v.1.15,2013-03-03 14:34:00,
2013-03-03 09:39:00,27.3,12.8,30.13,WNW,296,4.0,14.0,54,0.00,,,0.00,Wunderground v.1.15,2013-03-03 14:39:00,
2013-03-03 09:45:00,27.6,13.5,30.13,ENE,65,3.0,6.0,55,0.00,,,0.00,Wunderground v.1.15,2013-03-03 14:45:00,
2013-03-03 09:51:00,28.4,13.4,30.13,West,263,3.0,3.0,53,0.00,,,0.00,Wunderground v.1.15,2013-03-03 14:51:00,
2013-03-03 09:56:00,28.4,13.9,30.14,NW,323,3.0,15.0,54,0.00,,,0.00,Wunderground v.1.15,2013-03-03 14:56:00,
2013-03-03 10:01:00,28.9,13.9,30.14,NW,317,3.0,5.0,53,0.00,,,0.00,Wunderground v.1.15,2013-03-03 15:01:00,
2013-03-03 10:07:00,28.8,13.8,30.13,ENE,63,3.0,5.0,53,0.00,,,0.00,Wunderground v.1.15,2013-03-03 15:07:00,
2013-03-03 10:13:00,29.5,13.6,30.13,North,5,3.0,7.0,51,0.00,,,0.00,Wunderground v.1.15,2013-03-03 15:13:00,
2013-03-03 10:19:00,29.5,14.0,30.13,South,183,3.0,7.0,52,0.00,,,0.00,Wunderground v.1.15,2013-03-03 15:19:00,
2013-03-03 10:24:00,29.4,13.0,30.13,NW,314,3.0,4.0,50,0.00,,,0.00,Wunderground v.1.15,2013-03-03 15:24:00,
2013-03-03 10:30:00,29.8,13.4,30.13,NE,45,4.0,4.0,50,0.00,,,0.00,Wunderground v.1.15,2013-03-03 15:30:00,
2013-03-03 10:36:00,30.0,13.6,30.13,North,9,3.0,5.0,50,0.00,,,0.00,Wunderground v.1.15,2013-03-03 15:36:00,
2013-03-03 10:41:00,30.5,13.6,30.13,ENE,58,3.0,3.0,49,0.00,,,0.00,Wunderground v.1.15,2013-03-03 15:41:00,
2013-03-03 10:51:00,31.4,13.5,30.12,NNW,328,3.0,6.0,47,0.00,,,0.00,Wunderground v.1.15,2013-03-03 15:51:00,
2013-03-03 10:56:00,31.7,14.2,30.13,WNW,290,3.0,11.0,48,0.00,,,0.00,Wunderground v.1.15,2013-03-03 15:56:00,
2013-03-03 11:01:00,31.9,13.4,30.13,NNW,338,2.0,2.0,46,0.00,,,0.00,Wunderground v.1.15,2013-03-03 16:01:00,
2013-03-03 11:06:00,32.3,13.3,30.13,SSW,198,2.0,5.0,45,0.00,,,0.00,Wunderground v.1.15,2013-03-03 16:06:00,
2013-03-03 11:12:00,32.8,13.8,30.13,NE,38,2.0,2.0,45,0.00,,,0.00,Wunderground v.1.15,2013-03-03 16:12:00,
2013-03-03 11:17:00,32.7,13.2,30.13,NW,315,3.0,5.0,44,0.00,,,0.00,Wunderground v.1.15,2013-03-03 16:17:00,
2013-03-03 11:23:00,32.7,11.6,30.13,ESE,111,3.0,3.0,41,0.00,,,0.00,Wunderground v.1.15,2013-03-03 16:23:00,
2013-03-03 11:29:00,33.3,12.6,30.13,North,360,2.0,5.0,42,0.00,,,0.00,Wunderground v.1.15,2013-03-03 16:29:00,
2013-03-03 11:34:00,33.4,12.7,30.13,NNW,346,2.0,5.0,42,0.00,,,0.00,Wunderground v.1.15,2013-03-03 16:34:00,
2013-03-03 11:40:00,33.9,13.2,30.12,WNW,290,2.0,2.0,42,0.00,,,0.00,Wunderground v.1.15,2013-03-03 16:40:00,
2013-03-03 11:51:00,33.4,13.3,30.12,West,271,4.0,5.0,43,0.00,,,0.00,Wunderground v.1.15,2013-03-03 16:51:00,
2013-03-03 11:56:00,33.5,12.8,30.12,WNW,286,3.0,11.0,42,0.00,,,0.00,Wunderground v.1.15,2013-03-03 16:56:00,
2013-03-03 12:01:00,34.2,13.5,30.12,WNW,296,3.0,3.0,42,0.00,,,0.00,Wunderground v.1.15,2013-03-03 17:01:00,
2013-03-03 12:07:00,34.9,14.1,30.11,WNW,298,2.0,3.0,42,0.00,,,0.00,Wunderground v.1.15,2013-03-03 17:07:00,
2013-03-03 12:13:00,34.9,13.0,30.11,NNW,338,2.0,4.0,40,0.00,,,0.00,Wunderground v.1.15,2013-03-03 17:13:00,
2013-03-03 12:18:00,34.8,13.5,30.11,West,263,2.0,4.0,41,0.00,,,0.00,Wunderground v.1.15,2013-03-03 17:18:00,
2013-03-03 12:24:00,35.5,13.5,30.11,NE,38,2.0,3.0,40,0.00,,,0.00,Wunderground v.1.15,2013-03-03 17:24:00,
2013-03-03 12:29:00,36.0,14.0,30.10,NW,317,2.0,5.0,40,0.00,,,0.00,Wunderground v.1.15,2013-03-03 17:29:00,
2013-03-03 12:35:00,36.4,14.9,30.10,ENE,65,2.0,5.0,41,0.00,,,0.00,Wunderground v.1.15,2013-03-03 17:35:00,
2013-03-03 12:40:00,37.0,14.9,30.10,NW,308,2.0,2.0,40,0.00,,,0.00,Wunderground v.1.15,2013-03-03 17:40:00,
2013-03-03 12:45:00,36.7,14.0,30.10,WSW,248,2.0,5.0,39,0.00,,,0.00,Wunderground v.1.15,2013-03-03 17:45:00,
2013-03-03 12:51:00,36.5,13.9,30.10,NNE,24,2.0,2.0,39,0.00,,,0.00,Wunderground v.1.15,2013-03-03 17:51:00,
2013-03-03 12:56:00,36.9,14.8,30.10,NNW,330,2.0,8.0,40,0.00,,,0.00,Wunderground v.1.15,2013-03-03 17:56:00,
2013-03-03 13:02:00,37.2,13.9,30.10,West,269,2.0,4.0,38,0.00,,,0.00,Wunderground v.1.15,2013-03-03 18:02:00,
2013-03-03 13:07:00,37.8,15.6,30.10,NW,312,2.0,4.0,40,0.00,,,0.00,Wunderground v.1.15,2013-03-03 18:07:00,
2013-03-03 13:13:00,37.9,13.9,30.09,NNW,346,2.0,7.0,37,0.00,,,0.00,Wunderground v.1.15,2013-03-03 18:13:00,
2013-03-03 13:19:00,37.8,14.4,30.09,WSW,243,2.0,7.0,38,0.00,,,0.00,Wunderground v.1.15,2013-03-03 18:19:00,
2013-03-03 13:24:00,38.4,15.0,30.08,SW,221,2.0,3.0,38,0.00,,,0.00,Wunderground v.1.15,2013-03-03 18:24:00,
2013-03-03 13:30:00,38.7,15.8,30.07,WNW,286,2.0,2.0,39,0.00,,,0.00,Wunderground v.1.15,2013-03-03 18:30:00,
2013-03-03 13:35:00,38.8,15.3,30.08,NW,323,2.0,5.0,38,0.00,,,0.00,Wunderground v.1.15,2013-03-03 18:35:00,
2013-03-03 13:41:00,38.1,14.7,30.08,North,360,2.0,2.0,38,0.00,,,0.00,Wunderground v.1.15,2013-03-03 18:41:00,
2013-03-03 13:51:00,38.9,16.0,30.08,NNE,22,2.0,2.0,39,0.00,,,0.00,Wunderground v.1.15,2013-03-03 18:51:00,
2013-03-03 13:56:00,39.4,17.0,30.08,NNW,338,2.0,8.0,40,0.00,,,0.00,Wunderground v.1.15,2013-03-03 18:56:00,
2013-03-03 14:01:00,39.1,15.0,30.07,NNE,19,2.0,4.0,37,0.00,,,0.00,Wunderground v.1.15,2013-03-03 19:01:00,
2013-03-03 14:06:00,38.7,14.6,30.07,NNE,13,2.0,5.0,37,0.00,,,0.00,Wunderground v.1.15,2013-03-03 19:06:00,
2013-03-03 14:11:00,38.5,15.7,30.06,North,5,2.0,2.0,39,0.00,,,0.00,Wunderground v.1.15,2013-03-03 19:11:00,
2013-03-03 14:17:00,39.2,15.1,30.07,NNE,27,1.0,3.0,37,0.00,,,0.00,Wunderground v.1.15,2013-03-03 19:17:00,
2013-03-03 14:22:00,39.1,15.6,30.06,NNW,333,2.0,6.0,38,0.00,,,0.00,Wunderground v.1.15,2013-03-03 19:22:00,
2013-03-03 14:28:00,38.9,16.0,30.06,NNE,13,3.0,7.0,39,0.00,,,0.00,Wunderground v.1.15,2013-03-03 19:28:00,
2013-03-03 14:33:00,39.4,16.5,30.06,WNW,293,2.0,3.0,39,0.00,,,0.00,Wunderground v.1.15,2013-03-03 19:33:00,
2013-03-03 14:39:00,39.3,15.8,30.06,WSW,246,2.0,3.0,38,0.00,,,0.00,Wunderground v.1.15,2013-03-03 19:39:00,
2013-03-03 14:45:00,39.5,16.6,30.06,SE,141,2.0,5.0,39,0.00,,,0.00,Wunderground v.1.15,2013-03-03 19:45:00,
2013-03-03 14:51:00,40.1,16.5,30.06,WNW,298,2.0,9.0,38,0.00,,,0.00,Wunderground v.1.15,2013-03-03 19:51:00,
2013-03-03 14:57:00,40.0,16.4,30.06,NW,306,2.0,10.0,38,0.00,,,0.00,Wunderground v.1.15,2013-03-03 19:57:00,
2013-03-03 15:02:00,39.5,16.0,30.06,NE,43,3.0,3.0,38,0.00,,,0.00,Wunderground v.1.15,2013-03-03 20:02:00,
2013-03-03 15:07:00,39.0,16.1,30.07,NW,307,3.0,6.0,39,0.00,,,0.00,Wunderground v.1.15,2013-03-03 20:07:00,
2013-03-03 15:13:00,39.0,16.1,30.07,NE,39,3.0,5.0,39,0.00,,,0.00,Wunderground v.1.15,2013-03-03 20:13:00,
2013-03-03 15:19:00,38.6,15.7,30.07,North,5,4.0,8.0,39,0.00,,,0.00,Wunderground v.1.15,2013-03-03 20:19:00,
2013-03-03 15:24:00,39.1,16.2,30.07,NNW,334,3.0,7.0,39,0.00,,,0.00,Wunderground v.1.15,2013-03-03 20:24:00,
2013-03-03 15:29:00,39.6,16.6,30.07,NNW,340,2.0,7.0,39,0.00,,,0.00,Wunderground v.1.15,2013-03-03 20:29:00,
2013-03-03 15:34:00,40.0,16.4,30.06,North,360,2.0,3.0,38,0.00,,,0.00,Wunderground v.1.15,2013-03-03 20:34:00,
2013-03-03 15:40:00,39.6,16.0,30.07,NNW,341,2.0,7.0,38,0.00,,,0.00,Wunderground v.1.15,2013-03-03 20:40:00,
2013-03-03 15:51:00,38.7,15.8,30.07,NW,315,4.0,4.0,39,0.00,,,0.00,Wunderground v.1.15,2013-03-03 20:51:00,
2013-03-03 15:56:00,38.8,15.9,30.07,NW,312,3.0,7.0,39,0.00,,,0.00,Wunderground v.1.15,2013-03-03 20:56:00,
2013-03-03 16:01:00,38.7,15.8,30.07,NW,313,3.0,5.0,39,0.00,,,0.00,Wunderground v.1.15,2013-03-03 21:01:00,
2013-03-03 16:07:00,38.2,15.4,30.07,NNW,327,3.0,6.0,39,0.00,,,0.00,Wunderground v.1.15,2013-03-03 21:07:00,
2013-03-03 16:13:00,37.9,15.7,30.07,WNW,303,3.0,3.0,40,0.00,,,0.00,Wunderground v.1.15,2013-03-03 21:13:00,
2013-03-03 16:19:00,37.9,16.8,30.07,WNW,303,2.0,6.0,42,0.00,,,0.00,Wunderground v.1.15,2013-03-03 21:19:00,
2013-03-03 16:24:00,37.8,16.2,30.08,NW,321,3.0,3.0,41,0.00,,,0.00,Wunderground v.1.15,2013-03-03 21:24:00,
2013-03-03 16:30:00,37.2,16.2,30.08,WSW,244,3.0,3.0,42,0.00,,,0.00,Wunderground v.1.15,2013-03-03 21:30:00,
2013-03-03 16:35:00,36.8,15.8,30.09,WNW,290,3.0,6.0,42,0.00,,,0.00,Wunderground v.1.15,2013-03-03 21:35:00,
2013-03-03 16:41:00,35.9,15.5,30.09,North,10,4.0,9.0,43,0.00,,,0.00,Wunderground v.1.15,2013-03-03 21:41:00,
2013-03-03 16:51:00,35.5,15.7,30.09,WNW,284,3.0,5.0,44,0.00,,,0.00,Wunderground v.1.15,2013-03-03 21:51:00,
2013-03-03 16:56:00,35.3,15.5,30.09,SE,142,3.0,8.0,44,0.00,,,0.00,Wunderground v.1.15,2013-03-03 21:56:00,
2013-03-03 17:02:00,35.1,15.9,30.09,NW,312,3.0,5.0,45,0.00,,,0.00,Wunderground v.1.15,2013-03-03 22:02:00,
2013-03-03 17:07:00,35.0,15.3,30.10,WNW,294,2.0,5.0,44,0.00,,,0.00,Wunderground v.1.15,2013-03-03 22:07:00,
2013-03-03 17:13:00,34.6,15.4,30.10,NNW,342,2.0,3.0,45,0.00,,,0.00,Wunderground v.1.15,2013-03-03 22:13:00,
2013-03-03 17:19:00,34.4,14.7,30.10,NW,317,2.0,8.0,44,0.00,,,0.00,Wunderground v.1.15,2013-03-03 22:19:00,
2013-03-03 17:24:00,33.9,14.3,30.10,WNW,284,3.0,4.0,44,0.00,,,0.00,Wunderground v.1.15,2013-03-03 22:24:00,
2013-03-03 17:29:00,33.5,14.4,30.11,NW,314,2.0,4.0,45,0.00,,,0.00,Wunderground v.1.15,2013-03-03 22:29:00,
2013-03-03 17:35:00,33.2,14.1,30.12,South,170,2.0,3.0,45,0.00,,,0.00,Wunderground v.1.15,2013-03-03 22:35:00,
2013-03-03 17:40:00,33.0,14.4,30.12,SSE,155,2.0,2.0,46,0.00,,,0.00,Wunderground v.1.15,2013-03-03 22:40:00,
2013-03-03 17:45:00,32.7,14.2,30.12,SW,223,1.0,2.0,46,0.00,,,0.00,Wunderground v.1.15,2013-03-03 22:45:00,
2013-03-03 17:51:00,32.5,14.0,30.13,West,263,1.0,2.0,46,0.00,,,0.00,Wunderground v.1.15,2013-03-03 22:51:00,
2013-03-03 17:56:00,32.3,13.8,30.13,North,5,1.0,7.0,46,0.00,,,0.00,Wunderground v.1.15,2013-03-03 22:56:00,
2013-03-03 18:01:00,32.2,13.7,30.13,SW,227,1.0,7.0,46,0.00,,,0.00,Wunderground v.1.15,2013-03-03 23:01:00,
2013-03-03 18:07:00,32.0,14.0,30.13,WSW,258,1.0,7.0,47,0.00,,,0.00,Wunderground v.1.15,2013-03-03 23:07:00,
2013-03-03 18:12:00,31.8,14.3,30.14,WNW,294,1.0,6.0,48,0.00,,,0.00,Wunderground v.1.15,2013-03-03 23:12:00,
2013-03-03 18:18:00,31.5,13.6,30.14,East,86,2.0,6.0,47,0.00,,,0.00,Wunderground v.1.15,2013-03-03 23:18:00,
2013-03-03 18:23:00,31.3,13.9,30.14,NNE,20,1.0,3.0,48,0.00,,,0.00,Wunderground v.1.15,2013-03-03 23:23:00,
2013-03-03 18:28:00,31.0,14.0,30.14,WNW,290,1.0,4.0,49,0.00,,,0.00,Wunderground v.1.15,2013-03-03 23:28:00,
2013-03-03 18:34:00,30.7,14.2,30.15,West,268,1.0,5.0,50,0.00,,,0.00,Wunderground v.1.15,2013-03-03 23:34:00,
2013-03-03 18:40:00,30.4,14.4,30.15,SSE,165,2.0,2.0,51,0.00,,,0.00,Wunderground v.1.15,2013-03-03 23:40:00,
2013-03-03 18:45:00,30.1,14.6,30.15,NNE,17,3.0,8.0,52,0.00,,,0.00,Wunderground v.1.15,2013-03-03 23:45:00,
2013-03-03 18:51:00,29.8,14.7,30.16,NW,317,2.0,2.0,53,0.00,,,0.00,Wunderground v.1.15,2013-03-03 23:51:00,
2013-03-03 18:56:00,29.6,14.1,30.15,WSW,250,2.0,4.0,52,0.00,,,0.00,Wunderground v.1.15,2013-03-03 23:56:00,
2013-03-03 19:01:00,29.5,14.9,30.16,West,267,1.0,4.0,54,0.00,,,0.00,Wunderground v.1.15,2013-03-04 00:01:00,
2013-03-03 19:06:00,29.3,14.7,30.16,SSE,159,1.0,4.0,54,0.00,,,0.00,Wunderground v.1.15,2013-03-04 00:06:00,
2013-03-03 19:12:00,29.1,14.5,30.16,NNW,333,1.0,3.0,54,0.00,,,0.00,Wunderground v.1.15,2013-03-04 00:12:00,
2013-03-03 19:18:00,29.0,14.8,30.17,WSW,244,2.0,3.0,55,0.00,,,0.00,Wunderground v.1.15,2013-03-04 00:18:00,
2013-03-03 19:24:00,28.9,14.7,30.16,NE,42,2.0,6.0,55,0.00,,,0.00,Wunderground v.1.15,2013-03-04 00:24:00,
2013-03-03 19:29:00,28.8,15.1,30.17,SSE,168,2.0,6.0,56,0.00,,,0.00,Wunderground v.1.15,2013-03-04 00:29:00,
2013-03-03 19:35:00,28.6,14.9,30.16,SSE,149,1.0,2.0,56,0.00,,,0.00,Wunderground v.1.15,2013-03-04 00:35:00,
2013-03-03 19:40:00,28.5,15.2,30.16,NNW,327,1.0,4.0,57,0.00,,,0.00,Wunderground v.1.15,2013-03-04 00:40:00,
2013-03-03 19:51:00,28.3,15.4,30.16,SW,235,2.0,4.0,58,0.00,,,0.00,Wunderground v.1.15,2013-03-04 00:51:00,
2013-03-03 19:56:00,28.2,14.9,30.17,WSW,240,3.0,6.0,57,0.00,,,0.00,Wunderground v.1.15,2013-03-04 00:56:00,
2013-03-03 20:01:00,28.1,14.8,30.17,SSE,148,4.0,4.0,57,0.00,,,0.00,Wunderground v.1.15,2013-03-04 01:01:00,
2013-03-03 20:06:00,28.0,14.7,30.17,WNW,298,3.0,4.0,57,0.00,,,0.00,Wunderground v.1.15,2013-03-04 01:06:00,
2013-03-03 20:12:00,27.9,15.0,30.16,NW,314,2.0,5.0,58,0.00,,,0.00,Wunderground v.1.15,2013-03-04 01:12:00,
2013-03-03 20:18:00,27.8,15.3,30.17,SW,217,3.0,5.0,59,0.00,,,0.00,Wunderground v.1.15,2013-03-04 01:18:00,
2013-03-03 20:24:00,27.7,15.2,30.17,ESE,120,3.0,3.0,59,0.00,,,0.00,Wunderground v.1.15,2013-03-04 01:24:00,
2013-03-03 20:29:00,27.6,15.1,30.17,WSW,245,3.0,7.0,59,0.00,,,0.00,Wunderground v.1.15,2013-03-04 01:29:00,
2013-03-03 20:34:00,27.5,15.0,30.17,West,262,4.0,4.0,59,0.00,,,0.00,Wunderground v.1.15,2013-03-04 01:34:00,
2013-03-03 20:39:00,27.5,15.0,30.17,South,181,3.0,4.0,59,0.00,,,0.00,Wunderground v.1.15,2013-03-04 01:39:00,
2013-03-03 20:44:00,27.4,14.9,30.18,SE,143,3.0,6.0,59,0.00,,,0.00,Wunderground v.1.15,2013-03-04 01:44:00,
2013-03-03 20:51:00,27.4,14.9,30.18,WSW,240,3.0,3.0,59,0.00,,,0.00,Wunderground v.1.15,2013-03-04 01:51:00,
2013-03-03 20:56:00,27.4,14.9,30.18,SE,142,3.0,6.0,59,0.00,,,0.00,Wunderground v.1.15,2013-03-04 01:56:00,
2013-03-03 21:01:00,27.3,15.2,30.18,SSW,207,2.0,3.0,60,0.00,,,0.00,Wunderground v.1.15,2013-03-04 02:01:00,
2013-03-03 21:07:00,27.2,15.1,30.18,SW,215,2.0,5.0,60,0.00,,,0.00,Wunderground v.1.15,2013-03-04 02:07:00,
2013-03-03 21:12:00,27.2,14.8,30.18,West,260,2.0,3.0,59,0.00,,,0.00,Wunderground v.1.15,2013-03-04 02:12:00,
2013-03-03 21:17:00,27.2,14.8,30.18,SW,236,3.0,4.0,59,0.00,,,0.00,Wunderground v.1.15,2013-03-04 02:17:00,
2013-03-03 21:23:00,27.1,15.0,30.18,WSW,240,2.0,9.0,60,0.00,,,0.00,Wunderground v.1.15,2013-03-04 02:23:00,
2013-03-03 21:29:00,27.1,15.0,30.18,ESE,115,3.0,9.0,60,0.00,,,0.00,Wunderground v.1.15,2013-03-04 02:29:00,
2013-03-03 21:35:00,27.0,14.9,30.18,North,360,3.0,4.0,60,0.00,,,0.00,Wunderground v.1.15,2013-03-04 02:35:00,
2013-03-03 21:40:00,27.0,14.9,30.19,West,271,3.0,3.0,60,0.00,,,0.00,Wunderground v.1.15,2013-03-04 02:40:00,
2013-03-03 21:51:00,27.0,14.9,30.18,ESE,114,4.0,4.0,60,0.00,,,0.00,Wunderground v.1.15,2013-03-04 02:51:00,
2013-03-03 21:57:00,26.9,14.9,30.18,SSW,194,3.0,8.0,60,0.00,,,0.00,Wunderground v.1.15,2013-03-04 02:57:00,
2013-03-03 22:03:00,26.7,14.7,30.18,SW,218,2.0,2.0,60,0.00,,,0.00,Wunderground v.1.15,2013-03-04 03:03:00,
2013-03-03 22:09:00,26.7,14.3,30.18,South,171,3.0,4.0,59,0.00,,,0.00,Wunderground v.1.15,2013-03-04 03:09:00,
2013-03-03 22:15:00,26.7,14.3,30.18,NE,43,2.0,3.0,59,0.00,,,0.00,Wunderground v.1.15,2013-03-04 03:15:00,
2013-03-03 22:20:00,26.6,14.2,30.18,SSE,162,2.0,3.0,59,0.00,,,0.00,Wunderground v.1.15,2013-03-04 03:20:00,
2013-03-03 22:26:00,26.6,14.2,30.19,NE,38,2.0,5.0,59,0.00,,,0.00,Wunderground v.1.15,2013-03-04 03:26:00,
2013-03-03 22:32:00,26.6,14.2,30.19,ENE,74,2.0,3.0,59,0.00,,,0.00,Wunderground v.1.15,2013-03-04 03:32:00,
2013-03-03 22:37:00,26.6,14.6,30.20,NW,316,3.0,8.0,60,0.00,,,0.00,Wunderground v.1.15,2013-03-04 03:37:00,
2013-03-03 22:43:00,26.6,14.2,30.20,WNW,288,2.0,4.0,59,0.00,,,0.00,Wunderground v.1.15,2013-03-04 03:43:00,
2013-03-03 22:51:00,26.5,14.1,30.20,WSW,239,2.0,6.0,59,0.00,,,0.00,Wunderground v.1.15,2013-03-04 03:51:00,
2013-03-03 22:56:00,26.5,14.1,30.20,SSW,212,3.0,6.0,59,0.00,,,0.00,Wunderground v.1.15,2013-03-04 03:56:00,
2013-03-03 23:02:00,26.5,13.7,30.21,SW,236,3.0,8.0,58,0.00,,,0.00,Wunderground v.1.15,2013-03-04 04:02:00,
2013-03-03 23:08:00,26.5,13.7,30.20,SW,232,3.0,8.0,58,0.00,,,0.00,Wunderground v.1.15,2013-03-04 04:08:00,
2013-03-03 23:13:00,26.4,14.0,30.20,SSW,195,3.0,6.0,59,0.00,,,0.00,Wunderground v.1.15,2013-03-04 04:13:00,
2013-03-03 23:19:00,26.4,14.0,30.20,SSW,210,2.0,6.0,59,0.00,,,0.00,Wunderground v.1.15,2013-03-04 04:19:00,
2013-03-03 23:24:00,26.3,13.5,30.21,WSW,243,2.0,7.0,58,0.00,,,0.00,Wunderground v.1.15,2013-03-04 04:24:00,
2013-03-03 23:30:00,26.3,13.5,30.21,ENE,74,3.0,3.0,58,0.00,,,0.00,Wunderground v.1.15,2013-03-04 04:30:00,
2013-03-03 23:36:00,26.2,13.8,30.21,WSW,251,2.0,7.0,59,0.00,,,0.00,Wunderground v.1.15,2013-03-04 04:36:00,
2013-03-03 23:42:00,26.2,13.8,30.21,NNW,329,2.0,5.0,59,0.00,,,0.00,Wunderground v.1.15,2013-03-04 04:42:00,
2013-03-03 23:51:00,26.1,14.1,30.20,West,265,2.0,4.0,60,0.00,,,0.00,Wunderground v.1.15,2013-03-04 04:51:00,
2013-03-03 23:56:00,26.0,13.6,30.21,SW,235,2.0,10.0,59,0.00,,,0.00,Wunderground v.1.15,2013-03-04 04:56:00,